MUOS-1

Last updated on Fri Jul 11 2025 00:02:43 GMT+0000 (Coordinated Universal Time)

1 38093U 12009A 25191.51850514 -.00000117 00000+0 00000+0 0 9990 2 38093 4.7843 46.9113 0056882 3.6969 324.7550 1.00271502 49015
UTC large
Height (km)
Speed (km/s)
/
Latitude / Longitude
Inclination (degrees)
Orbital Period (minutes)
Azimuth
Elevation
Range (km)
Doppler Factor

Next 0 passes for location: London (51.5072 / 0.1276)

Sorry there are no passes over London.